| time (UTC) | temp F | wind direction | speed MPH | gust MPH | rain 1hr in | rain 24hr in | rain mn in | humidity % | barometer mb |
| 20260509120908 | 58 | 172 | 0.0 | 4.0 | 0.00 | 0.00 | 0.00 | ||
| 20260509120400 | 57 | 134 | 3.0 | 3.0 | 0.00 | 0.00 | 0.00 | ||
| 20260509115856 | 57 | 188 | 1.0 | 7.0 | 0.00 | 0.00 | 0.00 | ||
| 20260509115351 | 56 | 122 | 3.0 | 9.0 | 0.00 | 0.00 | 0.00 | ||
| 20260509114846 | 57 | 142 | 7.0 | 3.0 | 0.00 | 0.00 | 0.00 | ||
| 20260509114341 | 56 | 201 | 2.0 | 3.0 | 0.00 | 0.00 | 0.00 | ||
| 20260509113837 | 56 | 97 | 0.0 | 3.0 | 0.00 | 0.00 | 0.00 | ||
| 20260509113329 | 55 | 72 | 1.0 | 3.0 | 0.00 | 0.00 | 0.00 | ||
| 20260509112824 | 55 | 142 | 2.0 | 3.0 | 0.00 | 0.00 | 0.00 | ||
| 20260509112318 | 54 | 249 | 1.0 | 5.0 | 0.00 | 0.00 | 0.00 | ||
| 20260509111813 | 53 | 277 | 3.0 | 4.0 | 0.00 | 0.00 | 0.00 | ||
| 20260509111308 | 53 | 173 | 0.0 | 0.0 | 0.00 | 0.00 | 0.00 | ||
| 20260509110804 | 53 | 173 | 0.0 | 0.0 | 0.00 | 0.00 | 0.00 | ||
| 20260509110256 | 52 | 173 | 0.0 | 0.0 | 0.00 | 0.00 | 0.00 | ||
| 20260509105751 | 53 | 173 | 0.0 | 0.0 | 0.00 | 0.00 | 0.00 | ||
| 20260509105246 | 52 | 173 | 0.0 | 0.0 | 0.00 | 0.00 | 0.00 | ||
| 20260509104741 | 51 | 173 | 0.0 | 0.0 | 0.00 | 0.00 | 0.00 | ||
| 20260509104237 | 52 | 173 | 0.0 | 0.0 | 0.00 | 0.00 | 0.00 | ||
| 20260509103732 | 52 | 173 | 0.0 | 0.0 | 0.00 | 0.00 | 0.00 | ||
| 20260509103224 | 52 | 173 | 0.0 | 0.0 | 0.00 | 0.00 | 0.00 | ||
| 20260509102719 | 51 | 173 | 0.0 | 0.0 | 0.00 | 0.00 | 0.00 | ||
| 20260509102214 | 51 | 173 | 0.0 | 0.0 | 0.00 | 0.00 | 0.00 | ||
| 20260509101205 | 51 | 173 | 0.0 | 0.0 | 0.00 | 0.00 | 0.00 | ||
| 20260509100700 | 51 | 173 | 0.0 | 0.0 | 0.00 | 0.00 | 0.00 | ||
| 20260509100152 | 50 | 173 | 0.0 | 0.0 | 0.00 | 0.00 | 0.00 | ||
| 20260509095647 | 52 | 173 | 0.0 | 0.0 | 0.00 | 0.00 | 0.00 | ||
| 20260509095142 | 52 | 173 | 0.0 | 0.0 | 0.00 | 0.00 | 0.00 | ||
| 20260509094637 | 51 | 173 | 0.0 | 0.0 | 0.00 | 0.00 | 0.00 | ||
| 20260509094132 | 52 | 173 | 0.0 | 2.0 | 0.00 | 0.00 | 0.00 | ||
| 20260509093627 | 53 | 173 | 0.0 | 3.0 | 0.00 | 0.00 | 0.00 | ||
| 20260509093119 | 51 | 229 | 2.0 | 0.0 | 0.00 | 0.00 | 0.00 | ||
| 20260509092822 | 52 | 270 | 0.0 | 0.0 | 0.00 | 0.00 | 0.00 | ||
| 20260509092615 | 52 | 270 | 0.0 | 0.0 | 0.00 | 0.00 | 0.00 | ||
| 20260509092110 | 52 | 270 | 0.0 | 0.0 | 0.00 | 0.00 | 0.00 | ||
| 20260509091605 | 51 | 270 | 0.0 | 0.0 | 0.00 | 0.00 | 0.00 | ||
| 20260509091100 | 52 | 270 | 0.0 | 0.0 | 0.00 | 0.00 | 0.00 | ||
| 20260509090555 | 52 | 270 | 0.0 | 0.0 | 0.00 | 0.00 | 0.00 | ||
| 20260509090047 | 53 | 270 | 0.0 | 0.0 | 0.00 | 0.00 | 0.00 | ||
| 20260509085542 | 53 | 270 | 0.0 | 1.0 | 0.00 | 0.00 | 0.00 | ||
| 20260509085037 | 52 | 270 | 0.0 | 3.0 | 0.00 | 0.00 | 0.00 | ||
| 20260509084532 | 52 | 212 | 1.0 | 2.0 | 0.00 | 0.00 | 0.00 | ||
| 20260509084027 | 52 | 246 | 0.0 | 2.0 | 0.00 | 0.00 | 0.00 | ||
| 20260509083523 | 51 | 259 | 0.0 | 3.0 | 0.00 | 0.00 | 0.00 | ||
| 20260509083015 | 51 | 255 | 0.0 | 0.0 | 0.00 | 0.00 | 0.00 | ||
| 20260509082510 | 52 | 255 | 0.0 | 2.0 | 0.00 | 0.00 | 0.00 | ||
| 20260509082005 | 51 | 255 | 0.0 | 2.0 | 0.00 | 0.00 | 0.00 | ||
| 20260509081500 | 52 | 273 | 0.0 | 2.0 | 0.00 | 0.00 | 0.00 | ||
| 20260509080956 | 52 | 291 | 0.0 | 1.0 | 0.00 | 0.00 | 0.00 | ||
| 20260509080451 | 52 | 186 | 0.0 | 2.0 | 0.00 | 0.00 | 0.00 | ||
| 20260509075438 | 50 | 224 | 2.0 | 2.0 | 0.00 | 0.00 | 0.00 | ||
| 20260509074933 | 51 | 232 | 0.0 | 0.0 | 0.00 | 0.00 | 0.00 | ||
| 20260509074428 | 51 | 232 | 0.0 | 0.0 | 0.00 | 0.00 | 0.00 | ||
| 20260509073923 | 51 | 232 | 0.0 | 0.0 | 0.00 | 0.00 | 0.00 | ||
| 20260509073418 | 51 | 232 | 0.0 | 0.0 | 0.00 | 0.00 | 0.00 | ||
| 20260509072911 | 51 | 232 | 0.0 | 0.0 | 0.00 | 0.00 | 0.00 | ||
| 20260509072406 | 51 | 232 | 0.0 | 0.0 | 0.00 | 0.00 | 0.00 | ||
| 20260509071901 | 51 | 232 | 0.0 | 2.0 | 0.00 | 0.00 | 0.00 | ||
| 20260509071356 | 52 | 225 | 1.0 | 3.0 | 0.00 | 0.00 | 0.00 | ||
| 20260509070346 | 51 | 222 | 1.0 | 2.0 | 0.00 | 0.00 | 0.00 | ||
| 20260509065838 | 50 | 198 | 2.0 | 2.0 | 0.00 | 0.00 | 0.00 | ||
| 20260509065333 | 51 | 155 | 1.0 | 2.0 | 0.00 | 0.00 | 0.00 | ||
| 20260509064828 | 51 | 203 | 2.0 | 3.0 | 0.00 | 0.00 | 0.00 | ||
| 20260509064323 | 50 | 145 | 1.0 | 3.0 | 0.00 | 0.00 | 0.00 | ||
| 20260509063818 | 48 | 134 | 0.0 | 0.0 | 0.00 | 0.00 | 0.00 | ||
| 20260509063313 | 48 | 134 | 0.0 | 0.0 | 0.00 | 0.00 | 0.00 | ||
| 20260509062805 | 49 | 134 | 0.0 | 0.0 | 0.00 | 0.00 | 0.00 | ||
| 20260509062300 | 47 | 134 | 0.0 | 0.0 | 0.00 | 0.00 | 0.00 | ||
| 20260509061755 | 46 | 134 | 0.0 | 0.0 | 0.00 | 0.00 | 0.00 | ||
| 20260509061249 | 47 | 134 | 0.0 | 0.0 | 0.00 | 0.00 | 0.00 | ||
| 20260509060744 | 48 | 134 | 0.0 | 0.0 | 0.00 | 0.00 | 0.00 | ||
| 20260509060240 | 47 | 134 | 0.0 | 0.0 | 0.00 | 0.00 | 0.00 | ||
| 20260509055732 | 47 | 134 | 0.0 | 0.0 | 0.00 | 0.00 | 0.00 | ||
| 20260509055227 | 47 | 134 | 0.0 | 0.0 | 0.00 | 0.00 | 0.00 | ||
| 20260509054722 | 47 | 134 | 0.0 | 0.0 | 0.00 | 0.00 | 0.00 | ||
| 20260509054217 | 47 | 134 | 0.0 | 0.0 | 0.00 | 0.00 | 0.00 | ||
| 20260509053712 | 47 | 134 | 0.0 | 0.0 | 0.00 | 0.00 | 0.00 | ||
| 20260509053207 | 46 | 134 | 0.0 | 0.0 | 0.00 | 0.00 | 0.00 | ||
| 20260509052659 | 45 | 134 | 0.0 | 0.0 | 0.00 | 0.00 | 0.00 | ||
| 20260509052154 | 45 | 134 | 0.0 | 0.0 | 0.00 | 0.00 | 0.00 | ||
| 20260509051649 | 45 | 134 | 0.0 | 0.0 | 0.00 | 0.00 | 0.00 | ||
| 20260509051144 | 45 | 134 | 0.0 | 0.0 | 0.00 | 0.00 | 0.00 | ||
| 20260509050639 | 45 | 134 | 0.0 | 0.0 | 0.00 | 0.00 | 0.00 | ||
| 20260509050135 | 45 | 134 | 0.0 | 0.0 | 0.00 | 0.00 | 0.00 | ||
| 20260509045627 | 45 | 134 | 0.0 | 0.0 | 0.00 | 0.00 | 0.00 | ||
| 20260509045122 | 45 | 134 | 0.0 | 0.0 | 0.00 | 0.00 | 0.00 | ||
| 20260509044617 | 45 | 134 | 0.0 | 0.0 | 0.00 | 0.00 | 0.00 | ||
| 20260509044112 | 45 | 134 | 0.0 | 0.0 | 0.00 | 0.00 | 0.00 | ||
| 20260509043607 | 45 | 134 | 0.0 | 0.0 | 0.00 | 0.00 | 0.00 | ||
| 20260509043101 | 45 | 134 | 0.0 | 0.0 | 0.00 | 0.00 | 0.00 | ||
| 20260509042553 | 45 | 134 | 0.0 | 0.0 | 0.00 | 0.00 | 0.00 | ||
| 20260509042048 | 46 | 134 | 0.0 | 0.0 | 0.00 | 0.00 | 0.00 | ||
| 20260509041543 | 47 | 134 | 0.0 | 0.0 | 0.00 | 0.00 | 0.00 | ||
| 20260509041038 | 45 | 134 | 0.0 | 0.0 | 0.00 | 0.00 | 0.00 | ||
| 20260509040533 | 46 | 134 | 0.0 | 0.0 | 0.00 | 0.00 | 0.00 | ||
| 20260509040029 | 47 | 134 | 0.0 | 0.0 | 0.00 | 0.00 | 0.00 | ||
| 20260509035521 | 46 | 134 | 0.0 | 0.0 | 0.00 | 0.00 | 0.00 | ||
| 20260509035016 | 46 | 134 | 0.0 | 0.0 | 0.00 | 0.00 | 0.00 | ||
| 20260509034511 | 46 | 134 | 0.0 | 0.0 | 0.00 | 0.00 | 0.00 | ||
| 20260509034006 | 46 | 134 | 0.0 | 0.0 | 0.00 | 0.00 | 0.00 | ||
| 20260509033502 | 47 | 134 | 0.0 | 0.0 | 0.00 | 0.00 | 0.00 | ||
| 20260509032957 | 48 | 134 | 0.0 | 0.0 | 0.00 | 0.00 | 0.00 | ||
| 20260509032449 | 48 | 134 | 0.0 | 0.0 | 0.00 | 0.00 | 0.00 | ||
| 20260509031944 | 48 | 134 | 0.0 | 0.0 | 0.00 | 0.00 | 0.00 | ||
| 20260509031439 | 48 | 124 | 0.0 | 0.0 | 0.00 | 0.00 | 0.00 | ||
| 20260509030934 | 49 | 124 | 0.0 | 0.0 | 0.00 | 0.00 | 0.00 | ||
| 20260509030430 | 49 | 124 | 0.0 | 0.0 | 0.00 | 0.00 | 0.00 | ||
| 20260509025925 | 50 | 124 | 0.0 | 0.0 | 0.00 | 0.00 | 0.00 | ||
| 20260509025417 | 50 | 124 | 0.0 | 0.0 | 0.00 | 0.00 | 0.00 | ||
| 20260509024912 | 49 | 124 | 0.0 | 0.0 | 0.00 | 0.00 | 0.00 | ||
| 20260509024408 | 50 | 124 | 0.0 | 0.0 | 0.00 | 0.00 | 0.00 | ||
| 20260509023903 | 49 | 124 | 0.0 | 0.0 | 0.00 | 0.00 | 0.00 | ||
| 20260509023358 | 50 | 124 | 0.0 | 0.0 | 0.00 | 0.00 | 0.00 | ||
| 20260509022852 | 50 | 124 | 0.0 | 0.0 | 0.00 | 0.00 | 0.00 | ||
| 20260509022344 | 51 | 124 | 0.0 | 0.0 | 0.00 | 0.00 | 0.00 | ||
| 20260509021839 | 52 | 124 | 0.0 | 0.0 | 0.00 | 0.00 | 0.00 | ||
| 20260509021335 | 51 | 124 | 0.0 | 0.0 | 0.00 | 0.00 | 0.00 | ||
| 20260509020830 | 52 | 124 | 0.0 | 1.0 | 0.00 | 0.00 | 0.00 | ||
| 20260509015821 | 53 | 188 | 0.0 | 0.0 | 0.00 | 0.00 | 0.00 | ||
| 20260509015313 | 53 | 188 | 0.0 | 0.0 | 0.00 | 0.00 | 0.00 | ||
| 20260509014808 | 54 | 188 | 0.0 | 5.0 | 0.00 | 0.00 | 0.00 | ||
| 20260509014304 | 53 | 222 | 2.0 | 7.0 | 0.00 | 0.00 | 0.00 | ||
| 20260509013759 | 54 | 204 | 0.0 | 0.0 | 0.00 | 0.00 | 0.00 | ||
| 20260509013254 | 55 | 204 | 0.0 | 0.0 | 0.00 | 0.00 | 0.00 | ||
| 20260509012749 | 56 | 204 | 0.0 | 0.0 | 0.00 | 0.00 | 0.00 | ||
| 20260509012242 | 56 | 204 | 0.0 | 0.0 | 0.00 | 0.00 | 0.00 | ||
| 20260509011737 | 55 | 204 | 0.0 | 0.0 | 0.00 | 0.00 | 0.00 | ||
| 20260509011232 | 55 | 204 | 0.0 | 0.0 | 0.00 | 0.00 | 0.00 | ||
| 20260509010727 | 57 | 204 | 0.0 | 0.0 | 0.00 | 0.00 | 0.00 | ||
| 20260509010222 | 58 | 204 | 0.0 | 0.0 | 0.00 | 0.00 | 0.00 | ||
| 20260509005717 | 58 | 204 | 0.0 | 0.0 | 0.00 | 0.00 | 0.00 | ||
| 20260509005209 | 58 | 204 | 0.0 | 0.0 | 0.00 | 0.00 | 0.00 | ||
| 20260509004200 | 59 | 204 | 0.0 | 0.0 | 0.00 | 0.00 | 0.00 | ||
| 20260509003655 | 60 | 204 | 0.0 | 0.0 | 0.00 | 0.00 | 0.00 | ||
| 20260509003150 | 60 | 204 | 0.0 | 0.0 | 0.00 | 0.00 | 0.00 | ||
| 20260509002646 | 61 | 204 | 0.0 | 0.0 | 0.00 | 0.00 | 0.00 | ||
| 20260509002138 | 60 | 204 | 0.0 | 0.0 | 0.00 | 0.00 | 0.00 | ||
| 20260509001633 | 60 | 204 | 0.0 | 0.0 | 0.00 | 0.00 | 0.00 | ||
| 20260509001128 | 62 | 204 | 0.0 | 0.0 | 0.00 | 0.00 | 0.00 | ||
| 20260509000624 | 61 | 204 | 0.0 | 0.0 | 0.00 | 0.00 | 0.00 | ||
| 20260509000119 | 62 | 204 | 0.0 | 0.0 | 0.00 | 0.00 | 0.00 | ||
| 20260508235614 | 63 | 204 | 0.0 | 0.0 | 0.00 | 0.00 | 0.00 | ||
| 20260508235106 | 62 | 204 | 0.0 | 0.0 | 0.00 | 0.00 | 0.00 | ||
| 20260508234602 | 62 | 204 | 0.0 | 0.0 | 0.00 | 0.00 | 0.00 | ||
| 20260508234057 | 64 | 204 | 0.0 | 0.0 | 0.00 | 0.00 | 0.00 | ||
| 20260508233552 | 65 | 204 | 0.0 | 0.0 | 0.00 | 0.00 | 0.00 | ||
| 20260508233047 | 65 | 204 | 0.0 | 0.0 | 0.00 | 0.00 | 0.00 | ||
| 20260508232543 | 65 | 204 | 0.0 | 4.0 | 0.00 | 0.00 | 0.00 | ||
| 20260508232034 | 65 | 262 | 3.0 | 0.0 | 0.00 | 0.00 | 0.00 | ||
| 20260508231529 | 65 | 266 | 0.0 | 2.0 | 0.00 | 0.00 | 0.00 | ||
| 20260508231024 | 66 | 266 | 0.0 | 3.0 | 0.00 | 0.00 | 0.00 | ||
| 20260508230520 | 66 | 222 | 0.0 | 2.0 | 0.00 | 0.00 | 0.00 | ||
| 20260508230014 | 66 | 222 | 0.0 | 5.0 | 0.00 | 0.00 | 0.00 | ||
| 20260508225509 | 66 | 276 | 0.0 | 2.0 | 0.00 | 0.00 | 0.00 | ||
| 20260508225002 | 66 | 287 | 1.0 | 4.0 | 0.00 | 0.00 | 0.00 | ||
| 20260508224457 | 66 | 354 | 1.0 | 5.0 | 0.00 | 0.00 | 0.00 | ||
| 20260508223952 | 66 | 293 | 0.0 | 9.0 | 0.00 | 0.00 | 0.00 | ||
| 20260508223447 | 68 | 274 | 2.0 | 6.0 | 0.00 | 0.00 | 0.00 | ||
| 20260508222943 | 68 | 281 | 5.0 | 4.0 | 0.00 | 0.00 | 0.00 | ||
| 20260508222438 | 67 | 269 | 2.0 | 7.0 | 0.00 | 0.00 | 0.00 | ||
| 20260508221930 | 68 | 259 | 1.0 | 6.0 | 0.00 | 0.00 | 0.00 | ||
| 20260508221426 | 68 | 357 | 1.0 | 6.0 | 0.00 | 0.00 | 0.00 | ||
| 20260508220921 | 69 | 280 | 2.0 | 7.0 | 0.00 | 0.00 | 0.00 | ||
| 20260508220416 | 68 | 291 | 0.0 | 6.0 | 0.00 | 0.00 | 0.00 | ||
| 20260508215911 | 67 | 101 | 1.0 | 6.0 | 0.00 | 0.00 | 0.00 | ||
| 20260508214859 | 67 | 280 | 2.0 | 8.0 | 0.00 | 0.00 | 0.00 | ||
| 20260508214354 | 68 | 318 | 5.0 | 6.0 | 0.00 | 0.00 | 0.00 | ||
| 20260508213848 | 67 | 316 | 1.0 | 11.0 | 0.00 | 0.00 | 0.00 | ||
| 20260508213343 | 68 | 278 | 5.0 | 11.0 | 0.00 | 0.00 | 0.00 | ||
| 20260508212839 | 70 | 280 | 6.0 | 15.0 | 0.00 | 0.00 | 0.00 | ||
| 20260508212334 | 68 | 269 | 7.0 | 13.0 | 0.00 | 0.00 | 0.00 | ||
| 20260508211826 | 70 | 224 | 9.0 | 12.0 | 0.00 | 0.00 | 0.00 | ||
| 20260508211322 | 70 | 250 | 6.0 | 11.0 | 0.00 | 0.00 | 0.00 | ||
| 20260508210817 | 71 | 273 | 8.0 | 11.0 | 0.00 | 0.00 | 0.00 | ||
| 20260508210312 | 69 | 240 | 4.0 | 9.0 | 0.00 | 0.00 | 0.00 | ||
| 20260508205807 | 69 | 250 | 5.0 | 10.0 | 0.00 | 0.00 | 0.00 | ||
| 20260508205306 | 70 | 260 | 7.0 | 8.0 | 0.00 | 0.00 | 0.00 | ||
| 20260508204755 | 70 | 253 | 8.0 | 8.0 | 0.00 | 0.00 | 0.00 | ||
| 20260508204250 | 69 | 253 | 6.0 | 9.0 | 0.00 | 0.00 | 0.00 | ||
| 20260508203745 | 69 | 293 | 8.0 | 11.0 | 0.00 | 0.00 | 0.00 | ||
| 20260508203241 | 69 | 249 | 10.0 | 16.0 | 0.00 | 0.00 | 0.00 | ||
| 20260508202736 | 69 | 257 | 10.0 | 23.0 | 0.00 | 0.00 | 0.00 | ||
| 20260508202231 | 70 | 225 | 9.0 | 19.0 | 0.00 | 0.00 | 0.00 | ||
| 20260508201724 | 71 | 236 | 18.0 | 27.0 | 0.00 | 0.00 | 0.00 | ||
| 20260508200714 | 73 | 271 | 11.0 | 16.0 | 0.00 | 0.00 | 0.00 | ||
| 20260508200210 | 73 | 238 | 9.0 | 14.0 | 0.00 | 0.00 | 0.00 | ||
| 20260508195705 | 73 | 240 | 9.0 | 17.0 | 0.00 | 0.00 | 0.00 | ||
| 20260508195200 | 72 | 281 | 11.0 | 19.0 | 0.00 | 0.00 | 0.00 | ||
| 20260508194653 | 72 | 248 | 12.0 | 22.0 | 0.00 | 0.00 | 0.00 | ||
| 20260508194148 | 73 | 236 | 7.0 | 21.0 | 0.00 | 0.00 | 0.00 | ||
| 20260508193643 | 72 | 280 | 7.0 | 18.0 | 0.00 | 0.00 | 0.00 | ||
| 20260508193138 | 70 | 239 | 15.0 | 16.0 | 0.00 | 0.00 | 0.00 | ||
| 20260508192632 | 70 | 240 | 14.0 | 15.0 | 0.00 | 0.00 | 0.00 | ||
| 20260508192127 | 70 | 257 | 7.0 | 17.0 | 0.00 | 0.00 | 0.00 | ||
| 20260508191619 | 68 | 187 | 10.0 | 15.0 | 0.00 | 0.00 | 0.00 | ||
| 20260508191115 | 68 | 183 | 9.0 | 14.0 | 0.00 | 0.00 | 0.00 | ||
| 20260508190610 | 67 | 207 | 10.0 | 14.0 | 0.00 | 0.00 | 0.00 | ||
| 20260508190105 | 67 | 198 | 13.0 | 17.0 | 0.00 | 0.00 | 0.00 | ||
| 20260508185055 | 72 | 236 | 15.0 | 19.0 | 0.00 | 0.00 | 0.00 | ||
| 20260508184547 | 68 | 224 | 13.0 | 21.0 | 0.00 | 0.00 | 0.00 | ||
| 20260508184042 | 67 | 249 | 9.0 | 15.0 | 0.00 | 0.00 | 0.00 | ||
| 20260508183538 | 71 | 214 | 13.0 | 17.0 | 0.00 | 0.00 | 0.00 | ||
| 20260508183033 | 69 | 262 | 15.0 | 26.0 | 0.00 | 0.00 | 0.00 | ||
| 20260508182528 | 69 | 256 | 12.0 | 21.0 | 0.00 | 0.00 | 0.00 | ||
| 20260508182023 | 70 | 238 | 13.0 | 19.0 | 0.00 | 0.00 | 0.00 | ||
| 20260508181516 | 68 | 288 | 10.0 | 21.0 | 0.00 | 0.00 | 0.00 | ||
| 20260508181010 | 72 | 266 | 10.0 | 17.0 | 0.00 | 0.00 | 0.00 | ||
| 20260508180505 | 72 | 274 | 10.0 | 19.0 | 0.00 | 0.00 | 0.00 | ||
| 20260508180000 | 69 | 219 | 12.0 | 19.0 | 0.00 | 0.00 | 0.00 | ||
| 20260508174951 | 68 | 274 | 9.0 | 17.0 | 0.00 | 0.00 | 0.00 | ||
| 20260508174443 | 69 | 224 | 15.0 | 16.0 | 0.00 | 0.00 | 0.00 | ||
| 20260508173939 | 70 | 243 | 11.0 | 16.0 | 0.00 | 0.00 | 0.00 | ||
| 20260508173433 | 67 | 242 | 14.0 | 14.0 | 0.00 | 0.00 | 0.00 | ||
| 20260508172928 | 69 | 232 | 9.0 | 15.0 | 0.00 | 0.00 | 0.00 | ||
| 20260508172424 | 69 | 245 | 10.0 | 21.0 | 0.00 | 0.00 | 0.00 | ||
| 20260508171919 | 70 | 277 | 11.0 | 13.0 | 0.00 | 0.00 | 0.00 | ||
| 20260508171412 | 67 | 210 | 7.0 | 17.0 | 0.00 | 0.00 | 0.00 | ||
| 20260508170907 | 69 | 228 | 8.0 | 21.0 | 0.00 | 0.00 | 0.00 | ||
| 20260508170402 | 67 | 283 | 9.0 | 20.0 | 0.00 | 0.00 | 0.00 | ||
| 20260508165858 | 67 | 253 | 12.0 | 16.0 | 0.00 | 0.00 | 0.00 | ||
| 20260508165353 | 66 | 252 | 14.0 | 20.0 | 0.00 | 0.00 | 0.00 | ||
| 20260508164848 | 69 | 239 | 11.0 | 14.0 | 0.00 | 0.00 | 0.00 | ||
| 20260508164340 | 67 | 243 | 8.0 | 15.0 | 0.00 | 0.00 | 0.00 | ||
| 20260508163836 | 67 | 297 | 9.0 | 13.0 | 0.00 | 0.00 | 0.00 | ||
| 20260508163331 | 67 | 252 | 9.0 | 12.0 | 0.00 | 0.00 | 0.00 | ||
| 20260508162826 | 67 | 200 | 6.0 | 21.0 | 0.00 | 0.00 | 0.00 | ||
| 20260508161817 | 65 | 236 | 12.0 | 21.0 | 0.00 | 0.00 | 0.00 | ||
| 20260508161309 | 68 | 245 | 14.0 | 20.0 | 0.00 | 0.00 | 0.00 | ||
| 20260508160805 | 68 | 172 | 14.0 | 18.0 | 0.00 | 0.00 | 0.00 | ||
| 20260508160300 | 66 | 233 | 15.0 | 14.0 | 0.00 | 0.00 | 0.00 | ||
| 20260508155755 | 67 | 180 | 10.0 | 19.0 | 0.00 | 0.00 | 0.00 | ||
| 20260508154746 | 65 | 246 | 9.0 | 20.0 | 0.00 | 0.00 | 0.00 | ||
| 20260508154238 | 65 | 238 | 14.0 | 21.0 | 0.00 | 0.00 | 0.00 | ||
| 20260508153733 | 66 | 236 | 13.0 | 22.0 | 0.00 | 0.00 | 0.00 | ||
| 20260508153228 | 66 | 221 | 14.0 | 13.0 | 0.00 | 0.00 | 0.00 | ||
| 20260508152723 | 65 | 205 | 7.0 | 20.0 | 0.00 | 0.00 | 0.00 | ||
| 20260508152218 | 65 | 248 | 12.0 | 19.0 | 0.00 | 0.00 | 0.00 | ||
| 20260508151714 | 64 | 205 | 9.0 | 16.0 | 0.00 | 0.00 | 0.00 | ||
| 20260508151206 | 64 | 245 | 9.0 | 18.0 | 0.00 | 0.00 | 0.00 | ||
| 20260508150701 | 63 | 221 | 9.0 | 18.0 | 0.00 | 0.00 | 0.00 | ||
| 20260508150157 | 64 | 194 | 10.0 | 15.0 | 0.00 | 0.00 | 0.00 | ||
| 20260508145652 | 64 | 273 | 11.0 | 18.0 | 0.00 | 0.00 | 0.00 | ||
| 20260508145147 | 62 | 259 | 12.0 | 20.0 | 0.00 | 0.00 | 0.00 | ||
| 20260508144642 | 64 | 215 | 17.0 | 20.0 | 0.00 | 0.00 | 0.00 | ||
| 20260508144134 | 64 | 246 | 10.0 | 15.0 | 0.00 | 0.00 | 0.00 | ||
| 20260508143629 | 63 | 270 | 9.0 | 13.0 | 0.00 | 0.00 | 0.00 | ||
| 20260508143124 | 63 | 159 | 9.0 | 16.0 | 0.00 | 0.00 | 0.00 | ||
| 20260508142619 | 63 | 215 | 6.0 | 15.0 | 0.00 | 0.00 | 0.00 | ||
| 20260508142114 | 61 | 233 | 12.0 | 14.0 | 0.00 | 0.00 | 0.00 | ||
| 20260508141610 | 62 | 253 | 8.0 | 14.0 | 0.00 | 0.00 | 0.00 | ||
| 20260508141102 | 62 | 225 | 7.0 | 11.0 | 0.00 | 0.00 | 0.00 | ||
| 20260508140557 | 62 | 270 | 8.0 | 11.0 | 0.00 | 0.00 | 0.00 | ||
| 20260508140052 | 61 | 193 | 6.0 | 13.0 | 0.00 | 0.00 | 0.00 | ||
| 20260508135547 | 61 | 256 | 8.0 | 14.0 | 0.00 | 0.00 | 0.00 | ||
| 20260508135043 | 60 | 246 | 7.0 | 13.0 | 0.00 | 0.00 | 0.00 | ||
| 20260508134030 | 59 | 246 | 7.0 | 10.0 | 0.00 | 0.00 | 0.00 | ||
| 20260508133525 | 60 | 191 | 8.0 | 11.0 | 0.00 | 0.00 | 0.00 | ||
| 20260508133020 | 58 | 240 | 9.0 | 12.0 | 0.00 | 0.00 | 0.00 | ||
| 20260508132516 | 58 | 197 | 6.0 | 10.0 | 0.00 | 0.00 | 0.00 | ||
| 20260508132011 | 58 | 194 | 8.0 | 13.0 | 0.00 | 0.00 | 0.00 | ||
| 20260508131506 | 58 | 242 | 9.0 | 13.0 | 0.00 | 0.00 | 0.00 | ||
| 20260508130958 | 58 | 222 | 11.0 | 10.0 | 0.00 | 0.00 | 0.00 | ||
| 20260508130453 | 56 | 197 | 8.0 | 11.0 | 0.00 | 0.00 | 0.00 | ||
| 20260508125948 | 56 | 243 | 7.0 | 10.0 | 0.00 | 0.00 | 0.00 | ||
| 20260508125444 | 56 | 239 | 7.0 | 9.0 | 0.00 | 0.00 | 0.00 | ||
| 20260508124939 | 56 | 205 | 7.0 | 8.0 | 0.00 | 0.00 | 0.00 | ||
| 20260508124434 | 55 | 201 | 6.0 | 9.0 | 0.00 | 0.00 | 0.00 | ||
| 20260508123926 | 55 | 255 | 6.0 | 9.0 | 0.00 | 0.00 | 0.00 | ||
| 20260508123421 | 54 | 212 | 6.0 | 9.0 | 0.00 | 0.00 | 0.00 | ||
| 20260508122916 | 53 | 231 | 7.0 | 9.0 | 0.00 | 0.00 | 0.00 | ||
| 20260508122411 | 53 | 232 | 7.0 | 9.0 | 0.00 | 0.00 | 0.00 | ||
| 20260508121906 | 54 | 217 | 4.0 | 8.0 | 0.00 | 0.00 | 0.00 | ||
| 20260508121401 | 53 | 191 | 4.0 | 8.0 | 0.00 | 0.00 | 0.00 |